Location: Chuathbaluk
(61.5726°N, 159.2454°W)
Time: 04:16:44
(UTC+00:00)

Transit 2A - Pass Details

Date: 26 November 2020
Orbit: 599 x 960 km, 66.7° (Epoch: 26 January)

Event Time Altitude Azimuth Distance (km) Brightness Sun altitude
Rises 08:54:11 0° 276° (W) 3,558 9.8 -46.6°
Enters shadow 08:55:34 - 278° (W) 3,056 9.4 -46.7°
Reaches altitude 10° 08:56:53 10° 281° (W) 2,574 - -46.7°
Maximum altitude 09:02:42 51° 357° (N) 1,051 - -47.1°
Drops below altitude 10° 09:08:00 10° 74° (ENE) 2,343 - -47.4°
Sets 09:10:21 0° 80° (E) 3,212 - -47.5°
